Regional Weather Roundup
Issued by NWS Grand Forks, ND

Home | Current Version | Previous Version | Text Only | Print | Product List | Glossary On
Versions: 1 2 3 4 5 6 7 8 9 10 11 12 13 14 15 16 17 18 19 20 21 22 23 24 25 26 27 28 29 30 31 32 33 34 35 36 37 38 39 40 41 42 43 44 45 46 47 48 49 50
000
ASUS43 KFGF 261331
RWRFGF
PRAIRIE TO PINES  WEATHER ROUNDUP
NATIONAL WEATHER SERVICE EASTERN NORTH DAKOTA/GRAND FORKS ND
800 AM CDT FRI MAY 26 2017

 **SATELLITE DATA USED TO AUGMENT SKY COVER AT AUTOMATED STATIONS**
 *****  WEATHER ACROSS EASTERN NORTH DAKOTA  *****

CITY           SKY/WX    TMP DP  RH WIND       PRES   REMARKS
GRAND FORKS    FAIR      58  48  69 W13       29.62R
GRAND FRKS AFB FAIR      57  47  68 W9        29.62R
DEVILS LAKE    FAIR      53  46  77 W15       29.66R
FARGO          FAIR      57  48  72 W10       29.66R
WAHPETON ARPT  FAIR      55  45  67 W10       29.69S
$$

 ***** WEATHER ACROSS CENTRAL AND WESTERN NORTH DAKOTA  *****

CITY           SKY/WX    TMP DP  RH WIND       PRES   REMARKS
BISMARCK       CLOUDY    54  42  64 W15       29.75R
MINOT          CLOUDY    54  44  69 W13       29.66R
JAMESTOWN      FAIR      52  45  77 W12       29.69R
MINOT AFB      CLOUDY    54  43  66 W17       29.64R
GARRISON         N/A     51  41  68 W18       29.69R
WILLISTON      CLOUDY    52  41  66 W17       29.73R
DICKINSON      CLOUDY    48  37  65 W23G29    29.76R
HETTINGER      FAIR      47  38  71 W17       29.82S
$$

 *****  OTHER AIRPORT OBSERVATIONS IN OUR AREA  *****

CITY           SKY/WX    TMP DP  RH WIND       PRES   REMARKS
WALHALLA       NOT AVBL
GRAFTON AIRPOR FAIR      57  50  77 W12       29.64R
VALLEY CITY AR FAIR      55  50  82 W16       29.70R
CANDO          NOT AVBL
CAVALIER APRT  FAIR      57  46  67 SW9       29.59S
GWINNER        SUNNY     55  48  76 MISG      29.71R
SHEYENNE NWR     N/A     55  49  80 W7        29.95S
ROLLA          FAIR      50  50 100 SW14      29.62R
 ***** THE ABOVE OBSERVATIONS ARE NON NWS ARE NOT QUALITY
       CONTROLLED AND MAY MIS-REPORT RAIN FOR SNOW...
$$

  *****  WEATHER ACROSS NORTHERN MINNESOTA  *****

CITY           SKY/WX    TMP DP  RH WIND       PRES   REMARKS
FLAG ISLAND    LGT RAIN  55  52  88 S8        29.60S
WARROAD        FAIR      57  54  88 SW3       29.62S
ROSEAU         PTSUNNY   59  54  82 SW7       29.61S
HALLOCK        FAIR      57  48  72 CALM      29.60S
THF RVR FALLS  FAIR      57  49  74 SW8       29.64R
BAUDETTE       PTSUNNY   60  53  77 S10       29.63R
WASKISH        PTSUNNY   61  54  77 S7        29.64R
CROOKSTON      FAIR      57  48  72 W7        29.64S
STEPHEN NDAWN    N/A     57  48  72 W6          N/A
GREENBUSH NDAW   N/A     57  48  72 W6          N/A
$$
  *****  WEATHER ACROSS CENTRAL AND WEST MINNESOTA  *****

CITY           SKY/WX    TMP DP  RH WIND       PRES   REMARKS
FOSSTON        FAIR      59  52  77 SW8       29.66R
BEMIDJI        FAIR      58  52  80 S6        29.65S
PARK RAPIDS    FAIR      58  50  75 S8        29.66R
ELBOW LAKE     FAIR      54  49  83 NW9       29.70R
WADENA         FAIR      57  54  88 SW7       29.67S
DETROIT LAKES  FAIR      59  50  72 W3        29.68R
MOORHEAD       FAIR      57  46  67 W6        29.67F
FERGUS FALLS   FAIR      55  48  76 NW10      29.68S
MORRIS MN      FAIR      57  50  77 W13       29.70R
STAPLES        FAIR      57  52  82 SW5       29.68S
$$
  *****  WEATHER ELSEWHERE ACROSS MINNESOTA  *****

CITY           SKY/WX    TMP DP  RH WIND       PRES   REMARKS
DULUTH         CLOUDY    50  47  89 E10       29.73S
INTRNTL FALLS  CLOUDY    56  52  86 SE6       29.66S
ELY            CLOUDY    55  48  76 SE7       29.72S
CLOQUET        CLOUDY    52  46  82 SE7       29.72S
WHEATON        FAIR      57  46  67 W9        29.72S
BRAINERD       FAIR      59  53  80 S6        29.68R
HIBBING        CLOUDY    53  51  93 CALM      29.70R
ALEXANDRIA     FAIR      56  53  90 W6        29.70R
SAINT CLOUD    FAIR      61  55  81 S7        29.69R
MINNEAPOLIS    CLOUDY    62  52  69 SE9       29.71S
$$

  *****  WEATHER ACROSS SOUTH DAKOTA  *****

CITY           SKY/WX    TMP DP  RH WIND       PRES   REMARKS
SIOUX FALLS    CLOUDY    58  50  75 NW13G21   29.76R
BROOKINGS      FAIR      54  48  80 NW12      29.76R
WATERTOWN      FAIR      52  46  80 W13       29.75R
HURON          FAIR      55  46  71 NW15      29.79R
SISSETON         N/A     58  48  69 NW12      29.70R
ABERDEEN       FAIR      54  43  66 W13       29.75R
MITCHELL       FAIR      56  46  69 NW13      29.81R
PIERRE         FAIR      54  41  61 W14       29.82R
MOBRIDGE       FAIR      54  42  64 W13       29.77R
RAPID CITY     FAIR      53  34  48 NW5       29.90R
$$

  *****  SOME WEATHER IN NEARBY STATES *****

CITY           SKY/WX    TMP DP  RH WIND       PRES   REMARKS
GLASGOW MT     CLOUDY    47  39  74 W9        29.82R
GREAT FALLS MT FAIR      44  38  79 SW5       29.96S
CHEYENNE WY    FAIR      40  33  76 NW3       29.99F
SCOTTSBLUFF NE FAIR      45  38  76 NW6       29.96R
OMAHA NE       PTSUNNY   63  58  83 N5        29.72R
DES MOINES IA  LGT RAIN  60  55  83 SE7       29.72R
DAVENPORT IA   FAIR      64  55  72 SE14      29.78F
CHICAGO IL     PTSUNNY   62  54  74 SE7       29.85R
EAU CLAIRE WI  FAIR      63  54  72 S9        29.75F
LA CROSSE WI   FAIR      62  57  83 E6        29.76S
$$

  *****  SOME NATIONAL WEATHER *****

CITY           SKY/WX    TMP DP  RH WIND       PRES   REMARKS
LA GUARDIA NY  CLOUDY    61  56  83 NW10      29.58R
RALEIGH NC     FAIR      68  57  68 W10       29.92R
ATLANTA GA     FAIR      67  53  61 W8        30.05R
NEW ORLEANS LA FAIR      75  66  73 S8        29.98R
OKLAHOMA CITY  FAIR      74  62  66 SW13      29.65R
ALBUQUERQUE NM FAIR      56  13  18 SE10      30.03R
SALT LAKE CITY MOCLDY    57  44  62 NW13      29.72R
LOS ANGELES CA CLOUDY    61  53  75 W5        29.94R
BOISE ID       CLOUDY    50  43  77 W7        29.84R
SEATTLE WA     FAIR      53  48  83 CALM      29.94R
$$

*** WEATHER ACROSS MANITOBA...SASKATCHEWAN AND ONTARIO ***
                ***ONTARIO***

CITY           SKY/WX    TMP DP  RH WIND       PRES   REMARKS
GERALDTON      PTSUNNY   55  48  76 VRB2      29.83S
THUNDER BAY    CLOUDY    52  46  82 E8        29.79S
SIOUX LOOKOUT  CLOUDY    54  46  76 S6        29.68S
TORONTO        PTSUNNY   59  55  88 NW8       29.68R
BIG TROUT LK   SUNNY     57  45  62 SE9       29.68F
PICKLE LAKE    PTSUNNY   63  45  51 S9G17     29.71S
DRYDEN         LGT RAIN  54  52  94 S10       29.66S
KENORA         CLOUDY    57  50  77 S12G17    29.62R
$$
                *** MANITOBA***

CITY           SKY/WX    TMP DP  RH WIND       PRES   REMARKS
BRANDON        MOSUNNY   54  46  76 W18       29.54R
DAUPHIN        MOSUNNY   57  48  72 W20G29    29.45R
ISLAND LAKE    NOT AVBL
PILOT MOUND      N/A     52  46  82 W12         N/A
THE PAS        LGT RAIN  46  46 100 N6        29.35F VSB 1/4
THOMPSON       CLOUDY    55  45  67 E7        29.48F
WINNIPEG       MOSUNNY   55  45  67 SW9       29.57R
LYNN LAKE      CLOUDY    50  48  93 N8        29.51F
CHURCHILL      PTSUNNY   37  34  87 E17       29.67S
GILLAM         CLOUDY    54  37  54 SE3       29.57R
$$
                ***SASKATCHEWAN***

CITY           SKY/WX    TMP DP  RH WIND       PRES   REMARKS
ESTEVAN        PTSUNNY   48  46  93 W21G29    29.65R
KINDERSLEY     PTSUNNY   45  39  81 W10       29.76R
LLOYDMINSTER   MOSUNNY   46  43  87 W8        29.73R
PRINCE ALBERT  CLOUDY    48  45  87 NW12      29.56R
REGINA         CLOUDY    48  43  81 W20G26    29.64R
YORKTON          N/A     52  48  87 W14G21    29.49R
N. BATTLEFORD  SUNNY     46  45  93 NW12      29.70S
LA RONGE       DRIZZLE   48  48 100 NW10      29.53S
SASKATOON      MOSUNNY   46  41  81 NW15      29.65R
SWIFT CURRENT  MOSUNNY   45  39  81 W13G18    29.75R
$$
NOTE: THESE ARE AUTOMATED STATIONS WITH LIMITED QUALITY CONTROL
      "FAIR" INDICATES FEW OR NO CLOUDS BELOW 12,000 FEET WITH NO
      SIGNIFICANT WEATHER AND/OR OBSTRUCTIONS TO VISIBILITY.
      SKY/WX - SKY CONDITION AND SIGNIFICANT WEATHER.
      TMP - AIR TEMPERATURE.    DP   - DEWPOINT TEMPERATURE.
      RH  - RELATIVE HUMIDITY.  PRES - PRESSURE.
      HX  - HEAT INDEX.         WCI  - WIND CHILL INDEX.
$




USA.gov is the U.S. government's official web portal to all federal, state and local government web resources and services.